Terminal Aerodrome Forecast
Issued by NWS Birmingham, AL

Home | Current Version | Previous Version | Text Only | Print | Product List | Glossary On
Versions: 1 2 3 4 5 6 7 8 9 10 11 12 13 14 15 16 17
000
FTUS44 KBMX 310520
TAFBHM
TAF
KBHM 310520Z 3106/0106 01005KT P6SM SKC
     FM311500 02012KT P6SM SKC=

USA.gov is the U.S. government's official web portal to all federal, state and local government web resources and services.